This is the latest recevied weather packets stored in our database for station/object WA3NOA-2. If no packets are shown the sender has not sent any weather packets the latest 10 day(s).
| Time | Temp. | Humidity | Pressure | Rain* | Wind** | Luminosity | Snow |
|---|---|---|---|---|---|---|---|
| 1778088127 | 15.56° C | 93% | 1001.8 hPa | 0 mm | - | - | - |
| 1778087888 | 15.56° C | 93% | 1001.8 hPa | 0 mm | - | - | - |
| 1778087827 | 15.56° C | 93% | 1001.7 hPa | 0 mm | - | - | - |
| 1778087527 | 15.56° C | 93% | 1001.7 hPa | 0.25 mm | - | - | - |
| 1778087227 | 15.56° C | 93% | 1001.9 hPa | 0.25 mm | - | - | - |
| 1778086988 | 15.56° C | 93% | 1002 hPa | 0.25 mm | - | - | - |
| 1778086927 | 15.56° C | 93% | 1002 hPa | 0.25 mm | - | - | - |
| 1778086627 | 15.56° C | 93% | 1002 hPa | 0.25 mm | - | - | - |
| 1778086327 | 15.56° C | 93% | 1002 hPa | 0.25 mm | - | - | - |
| 1778086088 | 15.56° C | 93% | 1002 hPa | 0.76 mm | - | - | - |
| 1778086027 | 15.56° C | 93% | 1001.9 hPa | 0.76 mm | - | - | - |
| 1778085727 | 15.56° C | 93% | 1001.8 hPa | 1.02 mm | - | - | - |
| 1778085427 | 15.56° C | 93% | 1002 hPa | 1.02 mm | - | - | - |
| 1778085188 | 15.56° C | 93% | 1001.8 hPa | 1.78 mm | - | - | - |
| 1778085127 | 15.56° C | 93% | 1001.9 hPa | 1.78 mm | - | - | - |
| 1778084827 | 15.56° C | 93% | 1002 hPa | 2.29 mm | - | - | - |
| 1778084527 | 15.56° C | 93% | 1002.1 hPa | 2.54 mm | - | - | - |
| 1778084288 | 15.56° C | 94% | 1002 hPa | 2.54 mm | - | - | - |
| 1778084227 | 15.56° C | 93% | 1001.9 hPa | 2.54 mm | - | - | - |
| 1778083927 | 15.56° C | 93% | 1001.8 hPa | 2.54 mm | - | - | - |
| 1778083627 | 15.56° C | 93% | 1002 hPa | 3.05 mm | - | - | - |
| 1778083388 | 15.56° C | 93% | 1002.3 hPa | 3.3 mm | - | - | - |
| 1778083327 | 15.56° C | 93% | 1002.3 hPa | 3.3 mm | - | - | - |
| 1778083027 | 15.56° C | 93% | 1002.6 hPa | 3.3 mm | - | - | - |
| 1778082727 | 15.56° C | 93% | 1002.9 hPa | 3.3 mm | - | - | - |
* Rain latest hour (hover to see other rain measurements)
** Current wind speed in m/s (hover to see current wind gust speed)